Tracking 31027 objects as of 19-Jul-2025
HD Live streaming from Space Station
objects crossing your sky now

FENGYUN 1C DEB

Track FENGYUN 1C DEB now!
10-day predictions


NORAD ID: 30287
Int'l Code: 1999-025YY
Perigee: 706.5 km
Apogee: 1,320.8 km
Inclination: 98.7 °
Period: 105.3 minutes
Semi major axis: 7384 km
RCS: 0.0604 m2 (small)
Launch date: May 10, 1999
Source: People's Republic of China (PRC)
Launch site: Taiyaun Space Center, China (TSC)

Note: This is SATELLITE DEBRIS
Your satellite tracking list
MOLNIYA 1-86
Track 1 satellite(s)




NASA's NSSDC Master Catalog

Two Line Element Set (TLE):
1 30287U 99025YY  25199.61458576  .00000758  00000-0  51044-3 0  9990
2 30287  98.6544 248.6429 0415974  43.1438 111.5725 13.68074162918464
Source of the keplerian elements: AFSPC